Location: Poughquag
(41.6090°N, 73.6820°W)
Time: 12:30:39
(UTC-04:00)

S-56A Canister/Altair - Pass Details

Date: 03 June 2020
Orbit: 633 x 2499 km, 38.9° (Epoch: 06 July)

Event Time Altitude Azimuth Distance (km) Brightness Sun altitude
Rises 07:38:23 0° 272° (W) 3,622 10.4 22.9°
Reaches altitude 10° 07:40:36 10° 270° (W) 2,856 10.0 23.3°
Maximum altitude 07:47:37 70° 188° (S) 1,455 9.3 24.6°
Drops below altitude 10° 07:58:28 10° 108° (ESE) 4,298 12.6 26.6°
Sets 08:02:33 0° 107° (ESE) 5,558 12.9 27.4°
